Regional Weather Roundup
Issued by NWS Albany, NY

Home | Current Version | Previous Version | Text Only | Print | Product List | Glossary On
Versions: 1 2 3 4 5 6 7 8 9 10 11 12 13 14 15 16 17 18 19 20 21 22 23 24 25 26 27 28 29
000
ASUS41 KALY 250010
RWRALY

NEW YORK STATE HOURLY WEATHER ROUNDUP
NATIONAL WEATHER SERVICE ALBANY NY
800 PM EDT FRI OCT 24 2014

NOTE: "FAIR" INDICATES FEW OR NO CLOUDS BELOW 12,000 FEET WITH NO
SIGNIFICANT WEATHER AND/OR NO OBSTRUCTIONS TO VISIBILITY.

NYZ032-033-038>043-046>054-057>066-NYZ062>081-250100-
EAST


CITY           SKY/WX    TMP DP  RH WIND       PRES   REMARKS
ALBANY         CLOUDY    47  44  90 N6        29.86R
GLENS FALLS    CLOUDY    46  43  89 CALM      29.86R
POUGHKEEPSIE   PTCLDY    51  46  83 NW3       29.81R
NEWBURGH       CLEAR     50  46  87 CALM      29.82R
MONTGOMERY     PTCLDY    58  41  53 NW6       29.80R
WHITE PLAINS   PTCLDY    49  45  86 SW3       29.80R
ISLIP          MOCLDY    55  46  71 W5        29.78R
NEW YORK CITY  PTCLDY    57  47  69 E3        29.80R
CENTRAL PARK   CLEAR     56  46  69 CALM      29.83R
$$

NYZ005>009-017-018-044>046-055-056-250100-
CENTRAL


CITY           SKY/WX    TMP DP  RH WIND       PRES   REMARKS
FULTON         MOCLDY    49  37  63 W8        29.91R
SYRACUSE       MOCLDY    48  36  63 W7        29.92R
ROME           CLEAR     45  40  82 NW7       29.91R
ELMIRA         MOCLDY    48  35  60 CALM      29.92R
BINGHAMTON     PTCLDY    49  37  63 NW6       29.89S
MONTICELLO     CLEAR     52  36  54 NW8G16    29.85R
$$

NYZ026>034-041>043-250100-
NORTH


CITY           SKY/WX    TMP DP  RH WIND       PRES   REMARKS
WATERTOWN      CLEAR     50  43  77 S7        29.88S
FORT DRUM      NOT AVBL
MASSENA        CLOUDY    50  43  77 SW5       29.85S
SARANAC LAKE   CLOUDY    41  40  96 CALM      29.85R
PLATTSBURGH    CLOUDY    49  41  74 W3        29.84S
$$

NYZ001>004-010>016-019>021-250100-
WEST


CITY           SKY/WX    TMP DP  RH WIND       PRES   REMARKS
NIAGARA FALLS  PTCLDY    49  42  77 SW9       29.95S
BUFFALO        PTCLDY    51  44  77 SW9       29.96R
DUNKIRK        CLEAR     47  43  86 S6        29.98S
JAMESTOWN      CLEAR     46  41  81 W6        29.99S
WELLSVILLE     PTCLDY    45  28  51 W8        29.96S
ROCHESTER      MOCLDY    49  40  71 W7        29.94S
PENN YAN       MOCLDY    51  31  46 W7        29.93R
$$

             KEY
       WCI = WIND CHILL INDEX
       VSB = VISIBILITY
       HX  = HEAT INDEX
$$



USA.gov is the U.S. government's official web portal to all federal, state and local government web resources and services.